Flag for USA

Past Weather in Point Washington Wildlife Management Area, Florida, USA — Yesterday and Last 2 Weeks

Now
76 °F

Clear.


Feels Like: 77 °F
Forecast: 85 / 73 °F
Wind: 5 mph from Northwest

Location: Tyndall Air Force Base
Current Time: Sep 25, 2020 at 10:30:12 pm
Latest Report: Sep 25, 2020 at 9:56 pm
Visibility: 10 mi
Pressure30.00 "Hg
Humidity: 86%
Dew Point: 72 °F
Location of Point Washington Wildlife Management AreaLocation

Past Weather in Point Washington Wildlife Management Area — Graph

°F

Point Washington Wildlife Management Area Temperature Yesterday

Maximum temperature yesterday: 83 °F (at 2:56 pm)
Minimum temperature yesterday: 72 °F (at 4:56 am)
Average temperature yesterday: 78 °F

High & Low Weather Summary for the Past Weeks

 TemperatureHumidityPressure
High92 °F (Sep 12, 2:56 pm)95% (Sep 25, 6:56 am)30.18 "Hg (Sep 25, 6:56 am)
Low65 °F (Sep 22, 5:56 am)51% (Sep 12, 2:56 pm)29.53 "Hg (Sep 16, 9:44 am)
Average77 °F83%29.91 "Hg
* Reported Sep 10 8:07 pm — Sep 25 8:56 pm, Point Washington Wildlife Management Area. Weather by CustomWeather, © 2020

Note: Actual official high and low records may vary slightly from our data, if they occured in-between our weather recording intervals... More about our weather records

Point Washington Wildlife Management Area Weather History for the Previous 24 Hours

Scroll right to see more
 ConditionsComfort  
Time TempWeatherWind HumidityBarometerVisibility
8:56 pm
Fri, Sep 25
78 °FClear.6 mph81%29.99 "Hg10 mi
6:56 pm79 °FClear.6 mph76%29.95 "Hg10 mi
5:56 pm82 °FClear.7 mph68%29.94 "Hg10 mi
4:56 pm83 °FSunny.8 mph68%29.94 "Hg10 mi
3:56 pm84 °FSunny.10 mph72%29.94 "Hg10 mi
2:56 pm84 °FSunny.10 mph72%29.94 "Hg10 mi
1:56 pm84 °FScattered clouds.9 mph72%29.95 "Hg10 mi
12:56 pm85 °FScattered clouds.8 mph69%29.97 "Hg10 mi
11:56 am85 °FBroken clouds.7 mph65%29.99 "Hg10 mi
10:56 am84 °FScattered clouds.3 mph66%29.99 "Hg10 mi
10:11 am82 °FScattered clouds.No wind74%29.98 "Hg10 mi
9:56 am83 °FPassing clouds.5 mph78%29.98 "Hg10 mi
8:56 am80 °FScattered clouds.3 mph83%29.98 "Hg10 mi
7:56 am76 °FScattered clouds.No wind94%29.96 "Hg10 mi
7:23 am77 °FScattered clouds.No wind89%29.95 "Hg10 mi
7:16 am77 °FPartly sunny.No wind89%29.94 "Hg10 mi
6:56 am76 °FPassing clouds.5 mph95%29.94 "Hg10 mi
6:31 am77 °FScattered clouds.3 mph89%29.93 "Hg10 mi
6:11 am77 °FPartly sunny.6 mph94%29.92 "Hg10 mi
6:01 am77 °FPartly sunny.No wind94%29.92 "Hg10 mi
4:56 am77 °FClear.3 mph94%29.90 "Hg10 mi
3:56 am78 °FClear.7 mph92%29.89 "Hg10 mi
3:16 am79 °FPassing clouds.8 mph89%29.89 "Hg10 mi
2:56 am77 °FPassing clouds.9 mph91%29.89 "Hg10 mi
2:06 am79 °FMostly cloudy.8 mph94%29.89 "Hg10 mi
1:56 am79 °FPassing clouds.6 mph92%29.89 "Hg10 mi
1:34 am79 °FDrizzle. Overcast.8 mph94%29.90 "Hg10 mi
1:06 am79 °FMostly cloudy.6 mph94%29.90 "Hg10 mi
12:56 am79 °FMostly cloudy.7 mph92%29.90 "Hg10 mi
12:22 am79 °FMostly cloudy.6 mph89%29.91 "Hg10 mi
11:56 pm
Thu, Sep 24
78 °FPassing clouds.8 mph92%29.91 "Hg10 mi
10:56 pm76 °FPassing clouds.3 mph93%29.91 "Hg10 mi
10:11 pm75 °FLight rain. Overcast.12 mph94%29.91 "Hg10 mi
Weather by CustomWeather, © 2020

See weather overview